Weather History for Piarco, Trinidad And Tobago

Change the Weather History Date:

Tuesday, November 13, 2012

  Actual Average Record
Temperature  
Mean Temperature 82 °F -  
Max Temperature 89 °F 86 °F 93 °F (2000)
Min Temperature 75 °F 73 °F 73 °F (2002)
Cooling Degree Days 17    
Growing Degree Days 32 (Base 50)    
Moisture  
Dew Point 76 °F    
Average Humidity 83    
Maximum Humidity 100    
Minimum Humidity 62    
Precipitation  
Precipitation 0.00 in 0.26 in - ()
Sea Level Pressure  
Sea Level Pressure 29.83 in    
Wind  
Wind Speed 4 mph ()    
Max Wind Speed 17 mph    
Max Gust Speed -    
Visibility 7.2 miles    
Events Rain , Thunderstorm    
Averages and records for this station are not official NWS values.
T = Trace of Precipitation, MM = Missing Value Source: Averaged Metar Reports

Daily Weather History Graph

Daily Weather History Graph

Search for Another Location

Airport:

Trip Planner

Search our weather history database for the weather conditions in past years. The results will help you decide how hot, cold, wet, or windy it might be!

Date:

Astronomy

Nov. 13, 2012 Rise Set
Actual Time 6:00 AM AST 5:39 PM AST
Civil Twilight 5:38 AM AST 6:01 PM AST
Nautical Twilight 5:12 AM AST 6:26 PM AST
Astronomical Twilight 4:47 AM AST 6:52 PM AST
Moon 5:32 AM AST (11/13) 5:32 PM AST (11/13)
Length of Visible Light 12h 23m
Length of Day
11h 39m
Waning Crescent, 0% of the Moon is Illuminated
Nov 13
Waning Crescent
Nov 13
New
Nov 20
First Quarter
Nov 28
Full
Dec 6
Last Quarter

Hourly Weather History & Observations

Time (AST) Temp. Heat Index Dew Point Humidity Pressure Visibility Wind Dir Wind Speed Gust Speed Precip Events Conditions
12:00 AM 78.8 °F - 75.2 °F 89% 29.83 in 6.2 mi Calm Calm - N/A   Mostly Cloudy
1:00 AM 77.0 °F - 75.2 °F 94% 29.83 in 6.2 mi East 5.8 mph - N/A   Mostly Cloudy
2:00 AM 77 °F - 76 °F 97% 29.83 in 15 mi Calm Calm - -   Scattered Clouds
2:00 AM 77.0 °F - 77.0 °F 100% 29.83 in 6.2 mi Calm Calm - N/A   Partly Cloudy
3:00 AM 77.0 °F - 77.0 °F 100% 29.80 in 6.2 mi Calm Calm - N/A   Mostly Cloudy
4:00 AM 77.0 °F - 75.2 °F 94% 29.80 in 6.2 mi Calm Calm - N/A   Scattered Clouds
5:00 AM 77 °F - 74 °F 90% 29.81 in 12 mi Calm Calm - -   Mist
5:00 AM 77.0 °F - 75.2 °F 94% 29.80 in 6.2 mi Calm Calm - N/A   Mostly Cloudy
6:00 AM 77.0 °F - 75.2 °F 94% 29.80 in 6.2 mi Calm Calm - N/A   Mostly Cloudy
7:00 AM 78.8 °F - 75.2 °F 89% 29.83 in 6.2 mi Calm Calm - N/A   Mostly Cloudy
8:00 AM 82 °F - 75 °F 75% 29.86 in 12 mi Calm Calm - -   Mist
8:00 AM 82.4 °F 89.5 °F 75.2 °F 79% 29.86 in 6.2 mi Calm Calm - N/A   Partly Cloudy
9:00 AM 87.8 °F 99.7 °F 77.0 °F 70% 29.86 in 6.2 mi East 17.3 mph - N/A   Mostly Cloudy
10:00 AM 89.6 °F 102.2 °F 77.0 °F 66% 29.89 in 6.2 mi East 17.3 mph - N/A   Mostly Cloudy
11:00 AM 89 °F - 78 °F 62% 29.86 in 10 mi ESE 11.5 mph - -   Mostly Cloudy
11:00 AM 89.6 °F 102.2 °F 77.0 °F 66% 29.86 in 6.2 mi ESE 11.5 mph - N/A   Mostly Cloudy
12:00 PM 86.0 °F 95.1 °F 75.2 °F 70% 29.83 in 5.0 mi East 16.1 mph - N/A   Mostly Cloudy
12:21 PM 84.2 °F 92.3 °F 75.2 °F 74% 29.86 in 2.5 mi ESE 9.2 mph - N/A Rain , Thunderstorm Light Thunderstorms and Rain
1:00 PM 84.2 °F 94.1 °F 77.0 °F 79% 29.83 in 6.2 mi East 12.7 mph - N/A   Mostly Cloudy
2:00 PM 86 °F - 76 °F 65% 29.81 in 11 mi ESE 9.2 mph - -  
2:00 PM 86.0 °F 95.1 °F 75.2 °F 70% 29.80 in 6.2 mi ESE 9.2 mph - N/A   Mostly Cloudy
3:00 PM 82.4 °F 89.5 °F 75.2 °F 79% 29.80 in 4.3 mi ESE 11.5 mph - N/A Rain Light Rain Showers
4:00 PM 80.6 °F 87.1 °F 77.0 °F 89% 29.80 in 6.2 mi ESE 5.8 mph - N/A Rain Light Rain
5:00 PM 83 °F - 77 °F 77% 29.80 in 7 mi ESE 11.2 mph - -   Partly Cloudy
5:00 PM 82.4 °F 90.9 °F 77.0 °F 84% 29.80 in 6.2 mi ESE 5.8 mph - N/A   Mostly Cloudy
6:00 PM 80.6 °F 86.2 °F 75.2 °F 84% 29.80 in 6.2 mi ESE 6.9 mph - N/A   Mostly Cloudy
7:00 PM 80.6 °F 86.2 °F 75.2 °F 84% 29.80 in 6.2 mi East 5.8 mph - N/A   Mostly Cloudy
8:00 PM 80 °F - 75 °F 82% 29.85 in 12 mi Calm Calm - -   Haze
8:00 PM 80.6 °F 86.2 °F 75.2 °F 84% 29.83 in 6.2 mi Calm Calm - N/A   Scattered Clouds
9:00 PM 78.8 °F - 75.2 °F 89% 29.83 in 6.2 mi East 5.8 mph - N/A   Scattered Clouds
10:00 PM 78.8 °F - 75.2 °F 89% 29.86 in 6.2 mi Calm Calm - N/A   Partly Cloudy
11:00 PM 79 °F - 76 °F 89% 29.87 in 11 mi Calm Calm - -   Smoke
11:00 PM 78.8 °F - 77.0 °F 94% 29.86 in 6.2 mi Calm Calm - N/A   Partly Cloudy